Location: Marysville Observatory
(48.1092°N, 122.1645°W)
Time: 12:15:45
(UTC-07:00)

Daily predictions for brighter satellites

Satellite Brightness Start Highest point End
(mag) Time Altitude Azimuth Time Altitude Azimuth Time Altitude Azimuth
Cosmos 1459 Rocket 4.3 21:48:30 10° NNW 21:54:47 71° W 22:00:56 10° S
CZ-3A R/B 1.5 21:56:52 10° N 21:57:17 11° NNE 21:57:44 10° NE
Cosmos 1076 Rocket 4.0 21:53:55 10° SSW 21:58:15 66° WNW 22:02:36 10° N
Abrixas rocket 3.3 21:56:35 10° W 21:59:30 31° SSW 22:02:25 10° SE
H-2A R/B 2.5 21:58:37 10° SE 22:03:51 55° ENE 22:09:11 10° N
Lacrosse 5 2.9 22:00:28 10° WNW 22:05:07 37° SW 22:09:45 10° SSE
YAOGAN 6 4.4 22:03:59 10° SSW 22:07:16 30° W 22:10:36 10° NNW
Cosmos 2151 3.9 22:04:53 10° SSE 22:08:43 32° E 22:12:34 10° NNE
SL-08 RB Rocket 3.8 22:04:33 10° SSE 22:09:07 72° ENE 22:13:45 10° N
SPOT 5 3.0 22:04:11 10° SSE 22:09:08 81° ENE 22:14:22 10° NNW
Meteor 2-10 4.3 22:05:29 10° N 22:11:08 84° ENE 22:16:52 10° SSE
Cosmos 1408 Rocket 3.7 22:07:09 10° SSW 22:11:27 75° W 22:15:49 10° N
Meteor 1-29 4.5 22:08:15 10° N 22:11:29 39° WNW 22:14:43 10° SW
Cosmos 1726 2.6 22:11:52 10° NNW 22:15:29 59° W 22:19:05 10° S
Cosmos 1626 3.4 22:12:41 11° SE 22:15:38 25° E 22:18:45 10° NNE
Cosmos 1356 4.3 22:12:43 10° SSE 22:15:52 32° E 22:19:03 10° NNE
Cosmos 1703 4.4 22:14:37 11° SSE 22:17:52 27° E 22:21:16 10° NNE
Landsat 7 4.2 22:14:00 10° SE 22:18:32 51° ENE 22:23:10 10° N
Tiangong 1 2.4 22:16:58 10° WSW 22:19:10 20° SSW 22:20:43 14° SSE
Cosmos 2123 Rocket 4.0 22:13:39 10° S 22:19:50 79° E 22:26:04 10° N
Abrixas 3.3 22:22:15 10° SSW 22:24:29 23° SSE 22:26:45 10° E
Cosmos 1763 Rocket 3.8 22:26:32 10° NNW 22:31:36 61° WSW 22:36:32 10° S
Cosmos 841 Rocket 3.6 22:26:41 10° NNW 22:31:57 77° WSW 22:36:47 12° SSE
Cosmos 1300 3.5 22:28:21 10° NNW 22:32:05 50° W 22:35:47 10° S
Cosmos 1500 Rocket 3.6 22:28:25 10° S 22:32:50 68° E 22:37:16 10° NNE
Terra 2.3 22:29:25 13° SE 22:33:28 50° ENE 22:38:05 10° N
Cosmos 304 Rocket 3.9 22:31:42 10° NNW 22:36:30 68° ENE 22:40:25 15° SSE
Cosmos 2285 Rocket 4.1 22:30:44 10° NNW 22:37:06 70° ENE 22:42:35 14° SSE
Meteor 1-11 4.3 22:32:15 10° S 22:38:01 69° E 22:43:49 10° NNE
Cosmos 1725 Rocket 4.3 22:32:24 10° NNW 22:38:36 66° W 22:44:44 10° S
Cosmos 1486 Rocket 4.0 22:35:10 10° SSW 22:40:26 84° ESE 22:45:48 10° NNE
IGS 5A 3.8 22:39:22 16° SE 22:42:35 54° ENE 22:46:40 10° N
Cosmos 2263 Rocket 2.2 22:37:27 10° SSW 22:42:56 64° ESE 22:48:29 10° NNE
ATLAS 5 CENTAUR R/B 4.0 22:38:56 10° W 22:43:19 32° NNW 22:48:08 10° NNE
CARTOSAT-1 3.7 22:40:30 15° SSE 22:43:54 61° ENE 22:48:11 10° N
Cosmos 2084 Rocket 4.0 22:44:12 10° NNW 22:47:52 43° NE 22:50:59 13° ESE
DMSP B5D2-2 4.1 22:43:08 10° NNE 22:48:21 61° ESE 22:53:20 11° S
Cosmos 1151 Rocket 3.3 22:44:58 10° NNW 22:49:20 68° W 22:53:14 13° S
Meteor 1-27 4.4 22:44:41 10° NNW 22:50:31 77° W 22:55:46 12° S
Cosmos 1805 Rocket 4.3 22:49:44 18° SSE 22:52:25 35° E 22:56:23 10° NNE
SL-14 R/B 4.3 22:48:55 10° SSW 22:52:43 45° WNW 22:56:31 10° N
SPOT 1/Viking Rocket 4.2 22:54:21 10° S 22:59:16 51° W 23:04:19 10° NNW
COSMOS 2406 3.9 22:54:24 10° NNW 22:59:51 44° NE 23:04:21 15° ESE
Cosmos 1464 Rocket 4.2 22:58:22 10° N 23:04:29 60° ENE 23:09:02 19° SSE
H-2A R/B 2.0 23:01:49 20° SSE 23:04:45 76° ENE 23:08:57 10° NNW
Cosmos 1455 2.1 23:00:59 10° N 23:04:52 86° E 23:07:19 21° S
USA 234 3.3 22:59:44 10° ENE 23:06:11 58° SE 23:12:36 10° SW
Cosmos 2058 3.2 23:03:11 10° SSW 23:07:19 71° W 23:11:34 10° N
Spot 4 4.1 23:08:10 20° SE 23:11:26 61° ENE 23:16:15 10° N
SL-24 R/B - RUBIN 2 4.3 23:06:52 10° NW 23:12:31 62° NE 23:16:18 18° SE
Cosmos 1844 Rocket 3.7 23:13:19 20° SE 23:15:49 28° ESE 23:20:28 10° NE
CZ-4C R/B 2.7 23:16:27 19° S 23:19:38 37° ESE 23:25:02 10° NE
Cosmos 540 Rocket 3.9 23:19:41 10° NNW 23:24:45 56° WSW 23:28:08 20° S
CZ-4B R/B 3.8 23:21:14 10° NNE 23:26:26 54° E 23:29:37 22° S
Cosmos 1503 Rocket 4.1 23:21:50 10° SSW 23:27:01 76° WNW 23:32:13 10° NNE
SL-24 R/B 4.5 23:27:37 26° SSE 23:29:53 82° ENE 23:34:13 10° NNW
Cosmos 1869 3.2 23:30:52 10° N 23:34:51 86° WSW 23:36:46 29° S
Cosmos 968 Rocket 3.9 23:32:30 24° SSE 23:35:21 47° ESE 23:40:24 10° NNE
Cosmos 2242 Rocket 4.0 23:32:05 10° N 23:36:37 53° ENE 23:38:55 26° SE
Cosmos 1933 4.2 23:35:38 10° N 23:39:30 38° ENE 23:41:15 25° SE
CZ-2C R/B 3.7 23:38:31 10° NE 23:43:04 28° E 23:45:10 22° SE
H-2A R/B 3.9 23:39:16 10° SW 23:43:36 24° W 23:48:00 10° NW
Sich 1 2.9 23:42:47 27° S 23:45:03 81° E 23:49:22 10° NNE
Tsikada Rocket 4.3 23:41:14 23° SSE 23:45:06 55° E 23:51:15 10° NNE
Meteor 2-10 Rocket 4.0 23:40:28 10° N 23:45:45 53° ENE 23:48:56 24° SE
Cosmos 1315 Rocket 4.2 23:49:27 21° ESE 23:50:21 23° E 23:53:27 10° NE
Cosmos 1626 4.1 23:47:48 10° SW 23:50:56 25° WNW 23:54:06 10° NNW
Cosmos 1400 Rocket 3.4 23:49:48 31° SE 23:51:13 44° E 23:55:11 10° NNE
CZ-4C R/B 3.6 23:51:51 30° S 23:53:58 73° WSW 23:58:26 10° NNW
